TimeMST,TemperatureF,Dew PointF,Humidity,Sea Level PressureIn,VisibilityMPH,Wind Direction,Wind SpeedMPH,Gust SpeedMPH,PrecipitationIn,Events,Conditions,WindDirDegrees,DateUTC
12:52 AM,17.1,14.0,88,30.21,10.0,South,3.5,-,N/A,,Clear,170,2013-11-05 07:52:00
1:52 AM,15.1,10.9,84,30.23,10.0,West,5.8,-,N/A,,Clear,260,2013-11-05 08:52:00
2:52 AM,15.1,12.0,88,30.22,10.0,SSW,6.9,-,N/A,,Clear,210,2013-11-05 09:52:00
3:52 AM,15.1,10.9,84,30.22,10.0,South,4.6,-,N/A,,Clear,190,2013-11-05 10:52:00
4:52 AM,12.9,10.0,88,30.25,10.0,Calm,Calm,-,N/A,,Clear,0,2013-11-05 11:52:00
5:02 AM,12.2,8.6,85,30.16,10.0,Calm,Calm,-,N/A,,Scattered Clouds,0,2013-11-05 12:02:00
5:11 AM,12.2,8.6,85,30.16,10.0,Calm,Calm,-,N/A,,Mostly Cloudy,0,2013-11-05 12:11:00
5:14 AM,12.2,8.6,85,30.16,1.5,Calm,Calm,-,N/A,,Mostly Cloudy,0,2013-11-05 12:14:00
5:18 AM,12.2,8.6,85,30.16,0.8,Calm,Calm,-,N/A,,Mist,0,2013-11-05 12:18:00
5:33 AM,12.2,10.4,92,30.17,1.5,Calm,Calm,-,N/A,,Mostly Cloudy,0,2013-11-05 12:33:00
5:35 AM,12.2,8.6,85,30.17,2.0,Calm,Calm,-,N/A,,Mostly Cloudy,0,2013-11-05 12:35:00
5:42 AM,12.2,8.6,85,30.18,4.0,Calm,Calm,-,N/A,,Mostly Cloudy,0,2013-11-05 12:42:00
5:48 AM,12.2,8.6,85,30.18,1.2,Calm,Calm,-,N/A,,Mostly Cloudy,0,2013-11-05 12:48:00
5:52 AM,12.9,10.0,88,30.29,0.5,Calm,Calm,-,N/A,Fog,Light Freezing Fog,0,2013-11-05 12:52:00
6:32 AM,10.4,6.8,85,30.18,1.8,SW,4.6,-,N/A,,Mostly Cloudy,230,2013-11-05 13:32:00
6:34 AM,10.4,6.8,85,30.18,5.0,SW,4.6,-,N/A,,Mostly Cloudy,230,2013-11-05 13:34:00
6:40 AM,10.4,6.8,85,30.18,10.0,WSW,5.8,-,N/A,,Scattered Clouds,250,2013-11-05 13:40:00
6:52 AM,10.9,7.0,84,30.32,10.0,West,4.6,-,N/A,,Clear,260,2013-11-05 13:52:00
7:52 AM,12.0,8.1,84,30.37,10.0,SSW,4.6,-,N/A,,Clear,200,2013-11-05 14:52:00
8:52 AM,19.0,16.0,88,30.37,10.0,Calm,Calm,-,N/A,,Clear,0,2013-11-05 15:52:00
9:52 AM,27.0,23.0,85,30.35,10.0,Calm,Calm,-,N/A,,Clear,0,2013-11-05 16:52:00
10:52 AM,32.0,25.0,75,30.38,10.0,Variable,4.6,-,N/A,,Clear,0,2013-11-05 17:52:00
11:52 AM,39.9,19.0,43,30.35,10.0,NNE,6.9,-,N/A,,Partly Cloudy,20,2013-11-05 18:52:00
12:52 PM,41.0,16.0,36,30.33,10.0,North,10.4,16.1,N/A,,Clear,10,2013-11-05 19:52:00
1:52 PM,42.1,15.1,34,30.33,10.0,NE,11.5,-,N/A,,Clear,40,2013-11-05 20:52:00
2:52 PM,42.1,14.0,32,30.32,10.0,NNE,10.4,16.1,N/A,,Clear,20,2013-11-05 21:52:00
3:52 PM,42.1,14.0,32,30.33,10.0,NE,10.4,-,N/A,,Clear,50,2013-11-05 22:52:00
4:52 PM,41.0,12.9,32,30.36,10.0,NNE,8.1,-,N/A,,Clear,30,2013-11-05 23:52:00
5:52 PM,34.0,12.9,42,30.39,10.0,ENE,5.8,-,N/A,,Clear,70,2013-11-06 00:52:00
6:52 PM,27.0,12.9,56,30.45,10.0,Calm,Calm,-,N/A,,Clear,0,2013-11-06 01:52:00
7:52 PM,26.1,14.0,60,30.46,10.0,WNW,8.1,-,N/A,,Clear,290,2013-11-06 02:52:00
8:52 PM,26.1,12.9,58,30.44,10.0,WNW,4.6,-,N/A,,Clear,290,2013-11-06 03:52:00
9:52 PM,21.9,12.0,66,30.43,10.0,West,5.8,-,N/A,,Clear,280,2013-11-06 04:52:00
10:52 PM,21.0,12.0,68,30.42,10.0,South,8.1,-,N/A,,Clear,180,2013-11-06 05:52:00
11:52 PM,19.9,12.0,71,30.40,10.0,SW,3.5,-,N/A,,Clear,230,2013-11-06 06:52:00